| time (UTC) | temp F | wind direction | speed MPH | gust MPH | rain 1hr in | rain 24hr in | rain mn in | humidity % | barometer mb |
| 20260505003024 | 75 | 148 | 4.0 | 9.0 | 0.00 | 0.00 | 0.00 | 55 | 1009.8 |
| 20260505001506 | 75 | 145 | 1.0 | 6.0 | 0.00 | 0.00 | 0.00 | 55 | 1010.0 |
| 20260505000054 | 75 | 167 | 3.0 | 8.0 | 0.00 | 0.00 | 0.00 | 54 | 1009.9 |
| 20260504234525 | 76 | 189 | 6.0 | 11.0 | 0.00 | 0.00 | 0.00 | 53 | 1009.9 |
| 20260504233010 | 76 | 187 | 7.0 | 14.0 | 0.00 | 0.00 | 0.00 | 52 | 1009.9 |
| 20260504231548 | 76 | 152 | 3.0 | 17.0 | 0.00 | 0.00 | 0.00 | 52 | 1010.3 |
| 20260504230035 | 77 | 172 | 8.0 | 17.0 | 0.00 | 0.00 | 0.00 | 50 | 1010.4 |
| 20260504224515 | 77 | 18 | 5.0 | 14.0 | 0.00 | 0.00 | 0.00 | 50 | 1010.6 |
| 20260504223122 | 79 | 137 | 6.0 | 12.0 | 0.00 | 0.00 | 0.00 | 49 | 1010.7 |
| 20260504221536 | 78 | 131 | 4.0 | 12.0 | 0.00 | 0.00 | 0.00 | 49 | 1010.8 |
| 20260504220018 | 79 | 135 | 3.0 | 12.0 | 0.00 | 0.00 | 0.00 | 49 | 1011.0 |
| 20260504214551 | 79 | 152 | 5.0 | 19.0 | 0.00 | 0.00 | 0.00 | 48 | 1011.2 |
| 20260504213045 | 78 | 153 | 6.0 | 16.0 | 0.00 | 0.00 | 0.00 | 48 | 1011.2 |
| 20260504211520 | 79 | 120 | 7.0 | 17.0 | 0.00 | 0.00 | 0.00 | 47 | 1011.5 |
| 20260504210101 | 78 | 145 | 9.0 | 14.0 | 0.00 | 0.00 | 0.00 | 48 | 1011.5 |
| 20260504204547 | 78 | 206 | 9.0 | 17.0 | 0.00 | 0.00 | 0.00 | 47 | 1011.7 |
| 20260504203023 | 79 | 326 | 6.0 | 18.0 | 0.00 | 0.00 | 0.00 | 48 | 1011.9 |
| 20260504201604 | 79 | 174 | 6.0 | 17.0 | 0.00 | 0.00 | 0.00 | 47 | 1012.3 |
| 20260504201501 | 79 | 131 | 6.0 | 17.0 | 0.00 | 0.00 | 0.00 | 47 | 1012.2 |
| 20260504200036 | 78 | 193 | 7.0 | 15.0 | 0.00 | 0.00 | 0.00 | 48 | 1012.4 |
| 20260504194521 | 78 | 204 | 9.0 | 19.0 | 0.00 | 0.00 | 0.00 | 47 | 1012.6 |
| 20260504193005 | 78 | 110 | 6.0 | 17.0 | 0.00 | 0.00 | 0.00 | 47 | 1012.8 |
| 20260504191541 | 79 | 258 | 5.0 | 18.0 | 0.00 | 0.00 | 0.00 | 46 | 1013.3 |
| 20260504190022 | 78 | 160 | 5.0 | 10.0 | 0.00 | 0.00 | 0.00 | 47 | 1013.5 |
| 20260504184600 | 77 | 160 | 5.0 | 16.0 | 0.00 | 0.00 | 0.00 | 48 | 1013.7 |
| 20260504183043 | 77 | 236 | 7.0 | 23.0 | 0.00 | 0.00 | 0.00 | 46 | 1013.7 |
| 20260504181523 | 78 | 137 | 4.0 | 16.0 | 0.00 | 0.00 | 0.00 | 46 | 1014.0 |
| 20260504180003 | 77 | 87 | 3.0 | 13.0 | 0.00 | 0.00 | 0.00 | 48 | 1014.0 |
| 20260504174546 | 76 | 168 | 6.0 | 20.0 | 0.00 | 0.00 | 0.00 | 48 | 1014.2 |
| 20260504173025 | 76 | 141 | 7.0 | 15.0 | 0.00 | 0.00 | 0.00 | 48 | 1014.5 |
| 20260504171505 | 76 | 162 | 12.0 | 19.0 | 0.00 | 0.00 | 0.00 | 46 | 1014.6 |